This demonstration page uses our WeatherBlox Daily Observations layout. Learn more.

Left ArrowRight Arrow

39.29038, -76.61219

Hourly Observations for August 7, 2015

Temp ( °F °C ) Dew Point ( °F °C ) Humidity (%) Winds ( mph kmh ) Pressure ( in mb ) Visibility ( mi km ) Precip ( " mm )
12:54 am 00:54 Clear 69 20.6 61 16.1 76 76 undefined N/A 29.90 1012 N/A 0.00 0.00
1:54 am 01:54 Mostly Cloudy 76 24.4 73 22.8 91 91 undefined N/A 29.82 1010 N/A 0.00 0.00
2:54 am 02:54 Mostly Cloudy 70 21.1 61 16.1 73 73 undefined N/A 29.83 1010 N/A 0.05 1.27
3:54 am 03:54 undefined 71 21.7 61 16.1 71 71 undefined N/A 29.85 1011 N/A 0.00 0.00
4:54 am 04:54 undefined 71 21.7 60 15.6 68 68 undefined N/A 29.86 1011 N/A 0.00 0.00
5:54 am 05:54 Mostly Clear 71 21.7 61 16.1 71 71 undefined N/A 29.87 1011 N/A 0.00 0.00
6:54 am 06:54 Mostly Sunny 71 21.7 62 16.7 73 73 undefined N/A 29.88 1012 N/A 0.00 0.00
7:54 am 07:54 undefined 72 22.2 64 17.8 76 76 undefined N/A 29.88 1012 N/A 0.00 0.00
8:54 am 08:54 Cloudy 72 22.2 63 17.2 73 73 undefined N/A 29.89 1012 N/A 0.00 0.00
9:54 am 09:54 undefined 73 22.8 62 16.7 69 69 undefined N/A 29.89 1012 N/A 0.00 0.00
10:54 am 10:54 Cloudy 72 22.2 54 12.2 53 53 undefined N/A 29.81 1009 N/A 0.00 0.00
11:54 am 11:54 undefined 77 25 61 16.1 58 58 undefined N/A 29.90 1012 N/A 0.00 0.00
12:54 pm 12:54 undefined 77 25 60 15.6 56 56 undefined N/A 29.88 1012 N/A 0.00 0.00
1:54 pm 13:54 undefined 80 26.7 60 15.6 51 51 undefined N/A 29.88 1012 N/A 0.00 0.00
2:54 pm 14:54 undefined 80 26.7 61 16.1 52 52 undefined N/A 29.87 1012 N/A 0.00 0.00
3:54 pm 15:54 undefined 81 27.2 60 15.6 49 49 undefined N/A 29.86 1011 N/A 0.00 0.00
4:54 pm 16:54 undefined 81 27.2 60 15.6 49 49 undefined N/A 29.87 1011 N/A 0.00 0.00
5:54 pm 17:54 undefined 81 27.2 61 16.1 51 51 undefined N/A 29.86 1011 N/A 0.00 0.00
6:54 pm 18:54 undefined 81 27.2 60 15.6 49 49 undefined N/A 29.86 1011 N/A 0.00 0.00
7:54 pm 19:54 undefined 80 26.7 61 16.1 52 52 undefined N/A 29.87 1011 N/A 0.00 0.00
8:54 pm 20:54 undefined 78 25.6 64 17.8 62 62 undefined N/A 29.87 1012 N/A 0.00 0.00
9:54 pm 21:54 undefined 77 25 64 17.8 64 64 undefined N/A 29.90 1012 N/A 0.00 0.00
10:54 pm 22:54 undefined 76 24.4 65 18.3 69 69 undefined N/A 29.91 1013 N/A 0.00 0.00
11:54 pm 23:54 undefined 76 24.4 61 16.1 60 60 undefined N/A 29.91 1013 N/A 0.00 0.00

Powered by AerisWeather